Location: *
(51.5000°N, 0.1100°W)
Time: 21:10:38
(UTC+00:00)

Aureole 3 - Pass Details

Date: 25 May 2024
Orbit: 378 x 1126 km, 82.5° (Epoch: 24 June)

Event Time Altitude Azimuth Distance (km) Brightness Sun altitude
Exits shadow 01:29:38 21° 256° (WSW) 936 4.2 -14.7°
Maximum altitude 01:30:39 25° 289° (WNW) 823 4.2 -14.7°
Drops below altitude 10° 01:33:18 10° 348° (NNW) 1,462 6.3 -14.5°
Sets 01:35:38 0° 2° (N) 2,393 8.0 -14.4°
